Home   Weather   Giridih   Past weeks

Flag for India Past Weather in Giridih, Jharkhand, India — Yesterday and Last 2 Weeks

Now
79 °F

Rain. Mostly cloudy.


Feels Like: 83 °F
Forecast: 79 / 91 °F
Wind: 13 mph from North

Location: Lucknow / Amausi

Current Time: Aug 31, 2016 at 6:12:18 AM

Latest Report: Aug 31, 2016 at 5:30 AM


Visibility: 2 mi

Pressure: 29.62 "Hg

Humidity: 100%

Dew Point: 79 °F

Location of GiridihLocation

Past Weather in Giridih — Graph

°F

Giridih Temperature Yesterday

Maximum temperature yesterday: 93 °F (at 10:00 AM)
Minimum temperature yesterday: 82 °F (at 3:00 AM)
Average temperature yesterday: 86 °F

High & Low Weather Summary for the Past Weeks

 TemperatureHumidityPressure
High99 °F (Aug 25, 12:00 PM)100% (Aug 16, 5:00 AM)29.77 "Hg (Aug 16, 5:00 AM)
Low77 °F (Aug 17, 12:00 AM)56% (Aug 29, 2:30 PM)29.36 "Hg (Aug 16, 4:00 PM)
Average86 °F88%29.58 "Hg
* Reported Aug 16 5:00 AM — Aug 31 4:00 AM, Giridih, Weather by CustomWeather, © 2016

Note: Actual official high and low records may vary slightly from our data, if they occured in-between our weather recording intervals... More about our weather records

Advertising

Giridih Weather History for the Previous 24 Hours

Scroll right to see more
 ConditionsComfort  
Time TempWeatherWind HumidityBarometerVisibility
4:00 AM
Wed, Aug 31
82 °FMostly cloudy.No wind100%29.56 "Hg2 mi
3:00 AM82 °FMostly cloudy.No wind100%29.56 "Hg2 mi
2:00 AM82 °FMostly cloudy.No wind100%29.59 "Hg2 mi
1:00 AM82 °FPartly cloudy.No wind100%29.59 "Hg2 mi
12:00 AM82 °FPartly cloudy.No wind100%29.62 "Hg2 mi
11:00 PM
Tue, Aug 30
84 °FPartly cloudy.No wind94%29.62 "Hg2 mi
10:00 PM84 °FPartly cloudy.No wind94%29.59 "Hg2 mi
9:00 PM84 °FPartly cloudy.No wind94%29.59 "Hg2 mi
8:30 PM84 °FPartly cloudy.No wind100%29.59 "Hg2 mi
8:00 PM84 °FPartly cloudy.No wind100%29.59 "Hg2 mi
7:30 PM84 °FPartly cloudy.No wind94%29.56 "Hg2 mi
7:00 PM84 °FPartly cloudy.No wind94%29.56 "Hg2 mi
6:30 PM84 °FBroken clouds.No wind94%29.53 "Hg2 mi
6:00 PM84 °FBroken clouds.No wind94%29.53 "Hg2 mi
5:30 PM86 °FBroken clouds.No wind89%29.53 "Hg2 mi
5:00 PM86 °FMore clouds than sun.No wind89%29.50 "Hg2 mi
4:30 PM84 °FMore clouds than sun.No wind94%29.53 "Hg2 mi
4:00 PM84 °FMore clouds than sun.No wind94%29.53 "Hg2 mi
3:30 PM86 °FMore clouds than sun.No wind89%29.53 "Hg2 mi
3:00 PM84 °FMore clouds than sun.2 mph89%29.53 "Hg2 mi
2:30 PM82 °FLight rain. More clouds than sun.2 mph94%29.56 "Hg2 mi
2:00 PM82 °FLight rain. More clouds than sun.2 mph94%29.56 "Hg2 mi
1:00 PM86 °FLight rain. More clouds than sun.9 mph89%29.56 "Hg2 mi
12:00 PM93 °FBroken clouds.No wind71%29.59 "Hg2 mi
11:30 AM93 °FBroken clouds.No wind71%29.59 "Hg2 mi
10:30 AM93 °FBroken clouds.No wind71%29.59 "Hg2 mi
10:00 AM93 °FBroken clouds.No wind71%29.59 "Hg2 mi
9:00 AM91 °FBroken clouds.No wind75%29.59 "Hg2 mi
8:30 AM91 °FScattered clouds.No wind71%29.59 "Hg2 mi
8:00 AM88 °FScattered clouds.No wind79%29.56 "Hg2 mi
7:30 AM88 °FPartly sunny.No wind79%29.59 "Hg2 mi
7:00 AM86 °FPartly sunny.No wind84%29.56 "Hg2 mi
6:30 AM84 °FPartly sunny.No wind89%29.56 "Hg2 mi
6:00 AM84 °FPassing clouds.No wind89%29.56 "Hg2 mi
Weather by CustomWeather, © 2016

See weather overviewHow to use our weather pages